EHI
0 0 0 0 0 0 0 0 0 0 1 3 6 8 8 9 7 4 1 2 8 16 28 45 60 64 59 53 46 39 32 24 18 12 6 2 2 2 2 1 0 0 0 0 0 0 0 0 0
0 0 0 0 0 0 0 0 0 0 1 4 6 9 12 13 11 5 2 4 11 18 27 41 55 59 54 48 43 38 32 25 18 13 7 3 1 1 1 0 0 0 0 0 0 0 0 0 0
0 0 0 0 0 0 0 0 1 1 3 5 7 10 12 13 11 7 6 11 16 21 26 39 54 58 51 44 40 36 31 25 17 11 8 5 3 1 1 1 0 0 0 0 0 0 0 0 0
0 0 0 0 0 0 0 1 2 3 4 6 8 11 12 11 10 9 12 17 20 23 29 43 57 60 53 45 41 37 32 26 17 10 7 5 4 3 2 2 1 1 0 0 0 0 0 0 0
0 0 0 0 0 0 1 2 3 3 4 7 12 15 15 15 16 17 18 21 24 28 34 46 57 58 53 48 44 40 36 30 21 11 6 5 4 3 3 3 3 2 1 0 0 0 0 0 0
0 0 0 0 0 0 1 2 3 3 4 9 16 19 18 19 23 23 21 23 27 34 39 45 50 51 50 48 46 44 40 35 25 14 8 6 4 3 4 4 4 3 2 1 0 0 0 0 0
0 0 0 0 0 0 0 1 3 5 7 10 16 19 19 21 24 24 24 25 29 36 41 42 42 42 44 45 46 45 42 37 28 17 10 8 6 5 5 5 4 3 3 1 0 0 0 0 0
0 0 0 0 0 0 0 2 6 10 11 12 15 18 21 25 26 27 28 29 29 34 38 39 38 36 36 38 41 43 41 36 28 19 12 10 8 6 6 6 6 5 4 3 1 0 0 0 0
0 0 0 0 0 0 2 6 11 15 17 19 20 21 25 28 29 31 33 33 31 28 29 32 33 33 31 32 34 37 36 32 24 17 12 10 9 8 7 7 8 8 8 6 3 1 0 0 0
0 0 0 0 0 2 5 9 14 19 21 23 24 26 28 26 26 29 32 33 31 26 23 24 28 30 31 30 30 31 30 26 20 15 11 10 9 8 7 7 8 9 9 8 6 3 1 1 1
0 0 1 1 2 4 8 10 14 17 17 17 22 27 26 22 21 24 27 29 30 27 23 23 25 27 29 30 29 28 27 22 17 14 11 9 7 7 7 6 6 7 8 8 6 4 4 4 4
0 1 1 2 3 6 9 10 12 13 10 11 19 24 22 19 19 21 24 27 31 29 25 24 25 25 27 29 28 27 25 21 17 15 12 9 8 7 7 6 6 6 6 6 6 6 6 6 6
1 1 1 1 3 6 9 11 11 11 11 15 21 22 19 18 20 23 26 29 32 32 27 24 24 23 24 26 28 27 24 20 17 16 13 11 10 9 7 6 6 6 6 6 6 6 5 5 6
1 1 0 0 1 5 8 10 11 12 16 21 24 21 17 17 21 25 29 31 34 35 31 27 26 25 25 25 27 26 23 19 17 15 14 12 10 9 7 6 6 6 6 6 5 5 4 4 5
1 0 0 0 1 3 6 7 9 12 16 21 22 19 16 16 20 23 28 31 35 36 34 33 32 29 27 26 25 24 22 19 16 15 13 11 10 8 7 6 6 6 6 5 5 4 3 3 3
0 0 0 0 0 1 2 3 4 8 13 16 16 17 17 17 19 23 27 30 33 35 38 38 36 32 27 25 23 21 20 18 15 12 11 11 9 7 5 5 6 6 5 4 4 3 3 3 2
0 0 0 0 0 1 1 1 1 4 8 11 12 15 17 17 19 24 29 30 33 37 41 41 36 31 27 24 21 18 17 16 14 10 9 10 9 6 4 4 4 4 4 4 4 3 3 2 1
0 0 0 0 0 1 1 1 1 3 5 7 10 14 17 17 19 24 29 32 34 38 41 40 36 32 29 25 21 17 16 16 14 11 9 9 8 5 4 3 3 3 3 5 5 4 3 1 0
0 0 0 0 0 0 0 0 1 2 3 5 10 14 17 19 21 25 29 32 35 37 38 37 34 32 30 27 21 17 16 16 15 13 10 8 6 5 4 3 2 2 2 3 4 3 2 1 0
0 0 0 0 0 0 0 0 0 1 2 4 8 13 18 20 22 26 31 34 36 37 37 36 34 32 30 27 22 17 15 15 15 13 10 7 6 5 3 2 1 0 1 1 1 1 1 0 0
0 0 0 0 0 0 0 0 0 0 1 3 7 13 18 19 19 24 30 35 37 37 36 34 33 33 32 29 23 17 14 13 12 11 9 7 6 4 3 1 0 0 0 0 0 0 0 0 0
0 0 0 0 0 0 0 0 0 0 0 2 6 12 16 17 17 19 24 28 30 32 33 32 32 33 32 29 23 17 13 11 10 10 8 7 6 4 3 1 0 0 0 0 0 0 0 0 0
0 0 0 0 0 0 0 0 0 0 0 1 4 9 14 16 16 16 18 19 20 23 26 28 29 29 29 27 21 16 13 11 9 8 8 7 6 4 3 2 1 0 0 0 0 0 0 0 0
0 0 0 0 0 0 0 0 0 0 1 1 3 8 12 14 14 14 14 14 14 16 20 24 26 26 25 22 18 14 13 11 9 8 7 7 6 4 3 2 1 0 0 0 0 0 0 0 0
0 0 0 0 0 0 0 0 0 1 2 3 4 6 9 11 12 14 14 13 12 13 16 21 24 24 21 17 14 12 10 10 9 8 7 6 6 5 2 1 1 0 0 1 0 0 0 0 0
0 0 0 0 0 0 0 0 0 1 2 3 4 4 6 7 9 11 13 13 12 12 14 18 21 21 17 12 9 8 7 7 6 6 6 6 6 5 2 0 0 0 0 0 0 0 0 0 0
0 0 0 0 0 0 0 0 0 0 1 3 3 3 4 4 6 7 9 10 11 12 13 14 17 16 13 9 5 4 4 3 2 3 5 6 6 4 1 0 0 0 0 0 0 0 0 0 0
0 0 0 0 0 0 0 0 0 0 0 1 2 3 3 3 4 5 6 8 10 13 13 13 14 13 10 6 4 3 3 1 0 1 3 3 3 3 1 0 0 0 0 0 0 0 0 0 0
0 0 0 0 0 0 0 0 0 0 0 0 1 2 3 3 2 4 6 7 8 11 13 13 13 11 8 5 4 3 2 1 0 0 1 1 1 1 1 0 1 0 0 0 0 0 0 0 0
0 0 0 0 0 0 0 0 0 0 0 0 0 1 3 2 2 4 8 7 8 10 12 13 12 9 7 6 4 3 1 0 0 0 0 0 0 1 0 0 1 0 0 0 0 0 0 0 0
Wind_Speed
3 2 2 3 5 3 4 7 4 2 2 1 2 3 5 5 5 5 4 13 16 15 12 15 17 17 16 16 15 15 14 14 13 13 12 11 11 10 10 9 8 8 7 6 6 5 5 4 4
2 2 3 4 4 1 6 5 3 3 3 1 2 3 5 5 7 10 8 14 17 15 11 13 18 17 16 16 15 15 14 13 13 12 12 11 10 9 9 8 7 7 6 5 4 4 3 3 2
1 1 3 3 3 5 5 3 2 2 2 1 1 2 4 6 7 7 10 17 15 13 10 14 19 18 17 16 15 15 14 13 12 12 11 10 10 9 8 7 6 5 4 4 3 3 2 2 1
2 3 3 2 6 8 7 6 3 2 1 1 3 3 3 4 7 11 17 17 16 13 10 13 19 18 17 16 15 15 14 13 12 11 11 10 9 8 7 6 6 5 4 3 2 2 1 1 1
3 4 2 2 6 7 6 6 5 3 2 2 4 4 3 3 13 18 17 17 16 12 9 12 17 17 17 16 15 14 13 12 12 11 10 9 9 8 7 6 5 4 3 3 2 1 1 1 2
3 4 2 4 7 8 6 5 5 3 3 3 5 5 2 6 15 16 15 14 14 14 10 10 17 17 16 15 15 14 13 12 11 10 10 9 8 7 6 5 4 3 3 2 2 2 2 3 4
3 3 3 4 5 8 8 4 4 3 3 4 6 6 3 6 11 14 13 12 11 12 10 8 9 12 15 15 14 13 12 11 10 10 9 9 8 7 6 5 4 4 3 3 3 3 4 4 5
5 3 2 3 4 8 6 3 1 2 1 3 5 8 8 9 10 12 12 11 10 9 9 8 7 7 7 8 13 13 12 11 10 10 9 8 7 6 6 5 5 5 5 5 4 4 4 5 6
2 2 4 5 4 6 5 2 3 3 4 4 3 5 10 14 13 13 11 10 9 9 7 7 7 6 6 6 10 10 11 10 9 7 8 6 3 3 3 5 6 6 6 5 5 5 6 6 6
4 4 9 7 5 5 5 1 1 3 5 5 6 7 12 14 14 14 13 12 12 10 8 7 7 8 7 7 5 4 5 5 4 3 3 2 2 2 3 4 6 6 6 6 6 6 5 4 2
5 7 8 8 8 6 4 3 2 4 2 4 9 12 12 12 10 11 11 12 12 11 10 8 8 8 7 5 5 3 3 3 3 3 3 2 2 1 2 1 2 3 4 3 3 3 2 2 2
4 7 7 7 6 3 4 2 2 2 2 5 10 13 12 12 10 10 10 9 8 8 8 7 7 7 7 5 4 4 3 3 3 3 4 3 2 1 1 1 1 1 1 1 1 1 2 2 2
4 7 6 6 4 3 1 2 1 2 4 7 9 10 10 10 9 7 9 9 8 7 6 6 6 6 6 5 4 4 4 4 3 3 3 4 3 2 2 1 1 1 1 1 1 1 2 2 2
5 5 6 5 4 2 1 1 2 1 5 8 9 8 8 8 9 8 8 8 9 8 6 6 6 6 5 5 4 3 3 3 3 3 3 4 3 2 2 1 1 1 1 1 1 1 1 1 1
2 2 6 5 3 2 3 3 1 4 6 8 8 7 6 5 7 9 9 9 9 9 8 7 7 5 6 5 4 3 3 3 2 2 3 3 2 2 2 1 1 1 1 1 1 1 0 1 1
3 3 3 7 2 3 3 3 5 2 7 8 6 6 5 4 5 6 7 7 8 8 8 7 7 6 5 5 4 3 3 3 2 1 1 2 2 2 2 1 1 1 1 1 1 1 0 1 1
3 1 4 7 3 1 2 4 4 2 5 6 6 6 5 5 4 4 6 6 7 7 7 7 6 6 5 4 3 3 3 3 2 2 2 1 1 1 1 1 1 1 1 1 1 0 1 1 2
4 3 4 4 3 2 1 3 3 2 4 5 6 6 6 6 5 4 5 6 6 6 6 7 6 5 4 4 3 2 2 2 1 1 1 2 1 1 1 1 1 1 1 1 1 1 1 1 2
4 2 4 5 4 1 1 3 3 2 3 4 4 5 6 6 4 3 4 5 5 4 5 6 6 5 4 3 3 2 2 1 1 1 1 1 1 1 0 1 0 0 1 1 1 1 1 1 0
0 1 3 4 4 0 0 2 2 1 3 4 5 5 6 4 3 4 4 5 5 5 4 5 5 5 5 3 2 2 2 2 2 1 1 2 2 2 1 1 1 1 0 1 1 1 0 1 0
2 2 3 4 3 2 1 3 1 1 2 2 3 4 4 6 6 5 5 4 5 5 5 4 4 5 4 4 2 2 2 1 1 0 1 2 3 2 2 2 1 1 1 1 2 1 2 1 1
3 4 3 2 1 2 1 2 4 1 0 1 3 4 4 4 4 4 4 4 4 5 4 5 4 5 4 5 4 4 3 2 2 2 2 2 2 2 2 2 1 1 1 2 2 2 2 2 1
3 2 1 1 1 2 3 1 5 2 1 3 3 4 5 5 6 6 5 5 4 4 3 3 3 3 4 4 4 4 2 2 1 1 1 2 1 1 2 2 2 2 2 3 3 2 2 2 3
0 4 5 5 5 3 3 1 4 2 3 2 1 2 3 4 4 3 2 2 2 2 2 3 3 3 3 3 4 4 4 3 2 2 2 2 1 2 2 2 2 3 3 3 3 3 3 3 3
5 6 5 6 5 2 3 1 4 4 2 1 2 2 2 2 3 3 2 2 2 2 3 3 4 3 3 3 3 4 4 4 4 4 3 2 1 2 3 2 2 2 3 3 3 3 3 4 4
2 4 4 2 2 3 4 1 4 2 1 3 3 2 2 2 2 3 3 3 3 3 3 4 5 4 3 3 2 3 4 3 3 4 3 3 3 3 3 3 3 3 3 3 3 3 4 3 4
3 2 2 4 0 1 3 3 4 3 2 2 3 3 2 2 3 4 4 3 3 4 3 5 5 4 3 3 3 2 3 3 3 3 3 2 2 2 3 3 3 4 4 3 3 3 4 3 4
3 2 5 4 2 2 3 2 2 4 3 2 2 1 1 2 2 3 3 3 3 3 3 3 4 4 3 3 3 2 2 2 3 2 3 3 3 2 2 3 3 4 3 2 2 2 3 2 3
5 5 4 3 2 2 2 4 3 3 1 1 2 1 1 2 3 3 3 2 2 2 2 3 3 2 2 2 2 1 1 1 1 2 2 2 2 2 3 3 3 3 3 2 2 2 2 2 3
3 2 3 2 1 1 2 5 3 2 1 1 1 1 1 1 1 2 2 3 3 3 2 2 2 2 2 2 2 1 1 1 1 2 2 2 2 3 3 3 2 3 3 2 2 3 3 3 3
Wind_Direction
177 166 111 74 54 44 257 250 232 276 334 308 96 106 108 90 128 146 132 138 138 143 147 146 143 139 137 134 132 130 129 127 126 124 122 120 119 119 118 117 115 115 114 114 113 110 105 99 95
172 151 66 67 88 301 265 243 214 219 210 243 52 90 87 76 95 116 128 141 141 143 145 146 145 142 140 139 137 135 134 133 132 131 130 129 127 126 125 124 123 121 120 121 122 118 111 105 94
213 134 94 90 157 204 243 259 176 167 197 231 105 69 96 121 119 134 146 142 138 141 143 149 147 145 144 143 142 141 140 139 138 137 136 136 134 133 131 130 129 128 127 129 130 128 118 120 104
91 55 55 96 240 236 236 254 256 216 251 290 115 83 73 123 138 141 141 141 138 141 143 150 149 148 148 148 147 146 145 144 144 142 142 141 140 138 137 137 137 139 141 143 145 144 146 179 256
73 87 63 285 259 261 255 247 243 233 222 192 114 102 55 49 121 134 141 143 141 141 144 150 149 150 151 151 151 151 150 149 148 148 148 148 147 147 147 146 147 152 157 162 170 184 211 250 275
60 75 102 257 264 273 266 240 223 216 223 177 118 108 88 126 132 141 143 143 143 143 144 147 152 152 153 154 154 154 153 153 152 152 153 155 157 157 156 158 164 175 180 187 206 229 250 265 279
123 120 204 240 269 279 272 247 201 188 209 185 134 111 121 145 144 140 138 135 136 139 141 143 152 155 156 156 156 156 155 156 157 160 163 167 170 170 174 178 184 195 203 215 228 245 260 270 277
159 111 275 265 265 276 285 299 244 129 180 132 115 136 158 166 146 134 131 128 131 135 142 146 148 148 150 156 161 162 162 163 166 170 173 176 181 187 194 195 205 218 229 235 242 256 263 273 281
120 73 256 246 244 269 301 342 332 10 82 83 97 132 144 145 137 128 127 128 134 141 148 153 154 152 152 159 168 167 169 171 172 177 180 179 185 196 207 214 217 228 234 238 248 262 268 277 284
135 186 235 230 232 269 297 344 333 68 69 75 82 96 126 139 140 139 144 150 152 156 162 165 164 165 165 172 164 165 170 170 173 173 179 176 181 197 203 223 226 234 236 242 254 265 269 278 282
175 212 244 263 263 267 286 323 351 111 99 158 151 143 138 139 143 147 150 155 159 161 164 173 173 171 172 169 160 167 169 169 176 178 179 176 179 199 209 216 241 245 241 247 266 271 269 270 262
214 251 249 262 270 278 291 307 12 68 185 165 151 147 142 143 150 151 148 151 148 153 163 169 171 170 173 165 167 167 170 172 181 186 177 169 175 191 202 212 226 226 235 234 249 260 270 271 270
242 262 271 268 288 276 350 8 74 63 113 132 136 134 142 148 151 147 140 138 140 148 157 164 165 167 168 160 170 168 175 173 180 182 178 171 174 192 199 212 213 222 236 221 226 250 263 271 282
229 245 273 280 289 288 94 329 69 143 127 130 133 140 146 147 146 137 136 139 147 151 156 159 159 165 158 160 167 163 169 160 165 178 181 174 176 181 184 193 200 217 227 230 214 229 244 259 267
226 307 318 295 267 229 95 6 266 198 139 137 144 143 136 139 145 149 156 155 155 156 158 161 160 156 154 156 159 154 161 153 168 178 175 172 171 172 174 176 190 230 222 220 209 232 286 306 291
5 12 310 290 278 260 117 239 255 221 143 151 151 146 142 148 165 164 160 155 153 155 159 164 159 149 149 148 146 134 139 143 160 155 152 154 159 162 162 171 201 227 204 186 194 187 193 289 290
8 297 275 297 301 259 136 219 253 214 144 151 149 147 148 154 165 169 159 154 153 156 155 154 148 151 152 141 133 132 134 141 148 137 140 141 132 137 142 173 205 201 167 202 236 186 183 252 279
254 254 270 280 296 99 136 236 256 155 133 144 145 144 156 162 168 176 160 147 145 150 152 152 145 149 143 130 115 103 103 117 133 145 152 137 137 135 124 172 212 173 159 222 236 229 241 234 250
238 281 295 283 272 109 160 239 255 174 129 139 151 155 164 162 170 155 143 134 127 129 143 151 142 144 137 136 137 138 151 166 167 175 169 152 168 158 156 196 175 164 193 219 216 220 263 273 304
267 0 317 302 299 327 121 275 285 162 153 162 162 165 169 158 146 143 138 135 135 136 145 147 143 146 152 157 168 168 166 181 189 188 185 192 200 203 191 197 206 199 222 286 248 181 212 278 104
286 217 257 276 334 20 56 339 336 0 120 129 156 168 170 165 164 162 157 150 139 149 160 160 160 156 158 154 133 105 78 60 50 204 227 219 205 206 201 199 199 205 195 231 237 194 173 231 272
283 254 245 253 47 303 86 283 293 281 339 204 203 182 175 172 149 154 154 155 165 174 165 156 165 162 159 156 153 153 154 180 217 216 229 246 229 217 205 198 196 212 219 238 237 204 189 183 242
250 270 284 274 125 31 8 72 300 350 335 260 233 185 170 164 158 162 171 175 175 170 158 156 158 159 160 163 166 163 170 194 212 223 229 260 266 235 224 210 214 221 224 233 241 236 217 200 206
45 32 19 34 58 39 315 121 292 295 268 268 227 167 160 154 155 158 161 149 147 146 147 148 151 165 166 172 179 179 185 189 184 222 227 248 269 265 249 232 230 236 225 227 230 233 234 230 223
29 59 25 6 15 287 316 80 261 284 298 119 146 157 160 157 156 153 153 148 151 166 169 164 161 175 182 181 189 193 195 192 200 213 216 223 241 257 260 254 249 251 237 225 221 226 240 233 228
336 108 139 190 243 286 335 302 269 302 8 71 108 117 113 144 175 177 187 178 166 175 170 169 175 184 187 188 198 202 204 199 210 211 209 216 226 236 241 240 257 257 246 239 224 230 244 242 239
35 20 154 134 102 357 307 305 314 346 24 51 67 89 114 183 202 202 200 187 179 174 180 179 172 174 182 187 187 203 209 202 213 219 220 228 236 239 243 247 264 265 251 245 233 237 247 251 250
86 100 63 73 81 335 316 313 282 302 313 9 44 83 201 218 210 202 194 186 185 175 176 171 167 176 188 186 188 199 211 213 211 212 223 233 242 245 254 262 268 266 264 259 244 248 257 257 261
13 28 61 77 130 145 281 281 273 250 248 278 277 261 255 232 219 201 194 194 175 149 144 149 155 158 166 175 170 171 211 212 213 226 241 235 240 250 256 264 271 272 269 263 261 263 269 269 272
61 51 100 112 275 176 190 270 317 298 260 194 248 279 285 270 239 187 165 147 131 121 121 125 140 148 164 160 146 166 207 211 242 268 263 245 248 256 260 264 271 269 269 269 264 271 279 277 274